Weather History for Rochester, MN

Change the Weather History Date:

Wednesday, November 21, 2012

  Actual Average Record
Temperature  
Mean Temperature 54 °F 31 °F  
Max Temperature 70 °F 38 °F 70 °F (2012)
Min Temperature 37 °F 23 °F -8 °F (1964)
Degree Days  
Heating Degree Days 11 34  
Month to date heating degree days 470 601  
Since 1 July heating degree days 1135 1337  
Cooling Degree Days 0 0  
Month to date cooling degree days 0 0  
Year to date cooling degree days 888 585  
Growing Degree Days 6 (Base 50)    
Moisture  
Dew Point 38 °F    
Average Humidity 55    
Maximum Humidity 79    
Minimum Humidity 31    
Precipitation  
Precipitation 0.00 in 0.06 in 0.66 in (1979)
Month to date precipitation 0.51 1.37  
Year to date precipitation 23.06 31.25  
Snow  
Snow 0.00 in 0.30 in 3.10 in (1989)
Month to date snowfall 0.1 3.4  
Since 1 July snowfall 0.1 4.2  
Snow Depth 0.00 in    
Sea Level Pressure  
Sea Level Pressure 29.97 in    
Wind  
Wind Speed 17 mph (SSW)    
Max Wind Speed 29 mph    
Max Gust Speed 37 mph    
Visibility 9 miles    
Events      
T = Trace of Precipitation, MM = Missing Value Source: NWS Daily Summary

Daily Weather History Graph

Daily Weather History Graph

Search for Another Location

Airport:

Trip Planner

Search our weather history database for the weather conditions in past years. The results will help you decide how hot, cold, wet, or windy it might be!

Date:

Astronomy

Nov. 21, 2012 Rise Set
Actual Time 7:13 AM CST 4:38 PM CST
Civil Twilight 6:41 AM CST 5:10 PM CST
Nautical Twilight 6:06 AM CST 5:45 PM CST
Astronomical Twilight 5:31 AM CST 6:19 PM CST
Moon 1:06 PM CST (11/21) 12:20 AM CST (11/21)
Length of Visible Light 10h 28m
Length of Day
9h 25m
First Quarter, 62% of the Moon is Illuminated
Nov 21
First Quarter
Nov 28
Full
Dec 6
Last Quarter
Dec 13
New
Dec 19
First Quarter

Hourly Weather History & Observations

Time (CST) Temp. Windchill Dew Point Humidity Pressure Visibility Wind Dir Wind Speed Gust Speed Precip Events Conditions
12:54 AM 39.0 °F 32.3 °F 33.1 °F 79% 30.12 in 6.0 mi South 10.4 mph - N/A   Haze
1:54 AM 39.9 °F 33.9 °F 34.0 °F 79% 30.11 in 6.0 mi South 9.2 mph - N/A   Haze
2:54 AM 39.0 °F 32.3 °F 33.1 °F 79% 30.11 in 6.0 mi South 10.4 mph - N/A   Haze
3:54 AM 42.1 °F 34.9 °F 34.0 °F 73% 30.08 in 7.0 mi South 13.8 mph - N/A   Clear
4:54 AM 42.1 °F 34.2 °F 34.0 °F 73% 30.07 in 7.0 mi South 16.1 mph - N/A   Clear
5:54 AM 43.0 °F 34.8 °F 35.1 °F 74% 30.06 in 7.0 mi South 18.4 mph - N/A   Clear
6:54 AM 43.0 °F 34.8 °F 35.1 °F 74% 30.05 in 7.0 mi South 18.4 mph - N/A   Clear
7:54 AM 46.0 °F 38.8 °F 35.1 °F 66% 30.04 in 7.0 mi South 18.4 mph - N/A   Clear
8:54 AM 51.1 °F - 37.9 °F 61% 30.04 in 9.0 mi SSW 18.4 mph - N/A   Clear
9:54 AM 55.0 °F - 37.9 °F 53% 30.03 in 10.0 mi SSW 21.9 mph 27.6 mph N/A   Clear
10:54 AM 59.0 °F - 39.0 °F 48% 30.01 in 10.0 mi SW 21.9 mph 31.1 mph N/A   Clear
11:54 AM 62.1 °F - 39.9 °F 44% 29.99 in 10.0 mi SSW 16.1 mph - N/A   Clear
12:54 PM 66.0 °F - 39.9 °F 38% 29.96 in 10.0 mi SSW 19.6 mph 26.5 mph N/A   Clear
1:54 PM 69.1 °F - 37.9 °F 32% 29.93 in 10.0 mi SSW 24.2 mph 32.2 mph N/A   Clear
2:54 PM 69.1 °F - 37.9 °F 32% 29.92 in 10.0 mi SSW 20.7 mph 28.8 mph N/A   Clear
3:54 PM 66.9 °F - 39.9 °F 37% 29.92 in 10.0 mi South 10.4 mph - 0.01 in   Clear
4:54 PM 61.0 °F - 39.9 °F 46% 29.91 in 10.0 mi South 12.7 mph - N/A   Clear
5:54 PM 57.9 °F - 42.1 °F 56% 29.90 in 10.0 mi South 11.5 mph - N/A   Clear
6:54 PM 57.9 °F - 43.0 °F 58% 29.89 in 10.0 mi South 17.3 mph - N/A   Clear
7:54 PM 55.9 °F - 42.1 °F 60% 29.89 in 10.0 mi South 17.3 mph - N/A   Clear
8:54 PM 57.0 °F - 39.0 °F 51% 29.87 in 10.0 mi South 21.9 mph - N/A   Clear
9:54 PM 55.9 °F - 39.0 °F 53% 29.85 in 10.0 mi South 23.0 mph 32.2 mph N/A   Clear
10:54 PM 55.0 °F - 37.9 °F 53% 29.83 in 10.0 mi South 25.3 mph 32.2 mph N/A   Clear
11:54 PM 55.0 °F - 37.9 °F 53% 29.82 in 10.0 mi South 19.6 mph 29.9 mph N/A   Clear